Weather History for Dalhart, TX

Change the Weather History Date:

Sunday, October 14, 2012

  Actual Average Record
Temperature  
Mean Temperature 61 °F 56 °F  
Max Temperature 75 °F 72 °F 91 °F (1989)
Min Temperature 47 °F 41 °F 29 °F (1969)
Degree Days  
Heating Degree Days 4 9  
Month to date heating degree days 132 98  
Since 1 July heating degree days 158 161  
Cooling Degree Days 0 0  
Month to date cooling degree days 1 8  
Year to date cooling degree days 1643 1136  
Growing Degree Days 10 (Base 50)    
Moisture  
Dew Point 37 °F    
Average Humidity 47    
Maximum Humidity 71    
Minimum Humidity 23    
Precipitation  
Precipitation 0.00 in 0.05 in 1.67 in (2008)
Month to date precipitation 0.02 0.66  
Year to date precipitation 6.35 15.66  
Snow  
Snow 0.00 in 0.00 in 0.00 in ()
Month to date snowfall 0.0 0.1  
Since 1 July snowfall 0.0 0.1  
Since 1 September snowfall 0.0 0.1  
Snow Depth 0.00 in    
Sea Level Pressure  
Sea Level Pressure 30.11 in    
Wind  
Wind Speed 7 mph (NW)    
Max Wind Speed 17 mph    
Max Gust Speed 20 mph    
Visibility 10 miles    
Events      
T = Trace of Precipitation, MM = Missing Value Source: NWS Daily Summary

Daily Weather History Graph

Daily Weather History Graph

Search for Another Location

Airport:

Trip Planner

Search our weather history database for the weather conditions in past years. The results will help you decide how hot, cold, wet, or windy it might be!

Date:

Astronomy

Oct. 14, 2012 Rise Set
Actual Time 7:56 AM CDT 7:14 PM CDT
Civil Twilight 7:30 AM CDT 7:40 PM CDT
Nautical Twilight 7:01 AM CDT 8:10 PM CDT
Astronomical Twilight 6:31 AM CDT 8:40 PM CDT
Moon 6:58 AM CDT (10/14) 6:36 PM CDT (10/14)
Length of Visible Light 12h 09m
Length of Day
11h 18m
Waning Crescent, 1% of the Moon is Illuminated
Oct 14
Waning Crescent
Oct 15
New
Oct 21
First Quarter
Oct 29
Full
Nov 6
Last Quarter

Hourly Weather History & Observations

Time (CDT) Temp. Dew Point Humidity Pressure Visibility Wind Dir Wind Speed Gust Speed Precip Events Conditions
12:53 AM 53.1 °F 41.0 °F 64% 29.94 in 10.0 mi NW 10.4 mph - N/A   Clear
1:53 AM 50.0 °F 41.0 °F 71% 29.96 in 10.0 mi West 12.7 mph - N/A   Clear
2:53 AM 48.9 °F 39.9 °F 71% 29.98 in 10.0 mi WNW 11.5 mph - N/A   Clear
3:53 AM 48.9 °F 39.9 °F 71% 30.00 in 10.0 mi WNW 10.4 mph - N/A   Clear
4:53 AM 48.9 °F 39.9 °F 71% 30.04 in 10.0 mi WNW 10.4 mph - N/A   Clear
5:53 AM 48.9 °F 39.0 °F 69% 30.08 in 10.0 mi WNW 10.4 mph - N/A   Clear
6:53 AM 51.1 °F 39.0 °F 63% 30.11 in 10.0 mi NW 12.7 mph - N/A   Clear
7:53 AM 48.9 °F 39.0 °F 69% 30.15 in 10.0 mi NW 9.2 mph - N/A   Clear
8:53 AM 51.1 °F 39.0 °F 63% 30.19 in 10.0 mi NW 9.2 mph - N/A   Clear
9:53 AM 59.0 °F 39.9 °F 49% 30.19 in 10.0 mi NNW 12.7 mph - N/A   Clear
10:53 AM 64.9 °F 37.0 °F 36% 30.19 in 10.0 mi North 13.8 mph - N/A   Clear
11:53 AM 66.9 °F 36.0 °F 32% 30.19 in 10.0 mi North 10.4 mph - N/A   Clear
12:53 PM 69.1 °F 36.0 °F 30% 30.19 in 10.0 mi North 11.5 mph 17.3 mph N/A   Clear
1:53 PM 71.1 °F 36.0 °F 28% 30.17 in 10.0 mi NW 6.9 mph - N/A   Clear
2:53 PM 71.6 °F 35.6 °F 27% 30.24 in 10.0 mi Variable 3.5 mph - N/A   Clear
3:53 PM 73.0 °F 33.1 °F 23% 30.13 in 10.0 mi Calm Calm - N/A   Clear
4:53 PM 73.0 °F 34.0 °F 24% 30.11 in 10.0 mi Calm Calm - N/A   Clear
5:53 PM 73.0 °F 34.0 °F 24% 30.09 in 9.0 mi Calm Calm - N/A   Clear
6:53 PM 70.0 °F 34.0 °F 27% 30.09 in 8.0 mi Calm Calm - N/A   Clear
7:53 PM 66.0 °F 34.0 °F 30% 30.11 in 10.0 mi SSE 3.5 mph - N/A   Clear
8:53 PM 61.0 °F 34.0 °F 36% 30.13 in 10.0 mi SSE 5.8 mph - N/A   Clear
9:53 PM 55.9 °F 36.0 °F 47% 30.13 in 10.0 mi SE 5.8 mph - N/A   Clear
10:53 PM 54.0 °F 36.0 °F 51% 30.12 in 10.0 mi Calm Calm - N/A   Clear
11:53 PM 50.0 °F 35.1 °F 57% 30.13 in 5.0 mi SSW 5.8 mph - N/A   Haze